Regional Weather Roundup
Issued by NWS Sioux Falls, SD

Home | Current Version | Previous Version | Graphics & Text | Print | Product List | Glossary Off
Versions: 1 2 3 4 5 6 7 8 9 10 11 12 13 14 15 16 17 18 19 20 21 22 23 24 25 26 27 28 29 30 31 32 33 34 35 36 37 38 39 40 41 42 43 44 45 46 47 48 49 50

000
ASUS43 KFSD 290702
RWRFSD

WEATHER ROUNDUP FOR SE SOUTH DAKOTA/SW MINNESOTA/NW IOWA
NATIONAL WEATHER SERVICE SIOUX FALLS SD
200 AM CDT MON MAY 29 2017

NOTE: "FAIR" INDICATES FEW OR NO CLOUDS BELOW 12,000 FEET WITH NO
SIGNIFICANT WEATHER AND OR OBSTRUCTIONS TO VISIBILITY.


SDZ038>040-050-052>070-290800-
SOUTHEAST SOUTH DAKOTA

CITY           SKY/WX    TMP DP  RH WIND       PRES   REMARKS
BROOKINGS      PTCLDY    50  45  83 W6        29.87F
CHAMBERLAIN    NOT AVBL
HURON          LGT RAIN  51  46  83 W9        29.92S
MADISON        FAIR      50  46  87 NW8       29.89F
MITCHELL       PTCLDY    51  47  86 W7        29.93R
SIOUX FALLS    MOCLDY    54  48  80 NW7       29.90R
WINNER         FAIR      51  48  89 SW5       29.99S
YANKTON        PTCLDY    55  47  74 NW5       29.92S
$$

MNZ071-072-080-081-089-090-097-098-290800-
SOUTHWEST MINNESOTA

CITY           SKY/WX    TMP DP  RH WIND       PRES   REMARKS
FAIRMONT       PTCLDY    56  45  66 NW16      29.83R
JACKSON        PTCLDY    52  45  76 NW12      29.85S
MARSHALL       CLEAR     52  44  74 W13       29.84F
MONTEVIDEO     CLEAR     54  45  71 NW9G16    29.82S
PIPESTONE      PTCLDY    54  43  66 NW9       29.88S
REDWOOD FALLS  CLEAR     53  43  68 W12       29.81S
TRACY          CLEAR     53  45  74 W6        29.85S
WINDOM         PTCLDY    52  45  76 W10       29.85R
WORTHINGTON    MOCLDY    53  47  79 NW15      29.87S
$$

IAZ001>003-012>014-020>022-031-032-NEZ013-014-SDZ071-290800-
NORTHWEST IOWA

CITY           SKY/WX    TMP DP  RH WIND       PRES   REMARKS
DENISON        CLEAR     54  45  71 CALM      29.87S
ESTHERVILLE    PTCLDY    54  47  77 W14       29.84R
LE MARS        CLEAR     50  46  87 CALM      29.90S
ORANGE CITY    CLEAR     52  46  82 NW6       29.89S
SHELDON        PTCLDY    52  46  82 W8        29.87S
SIOUX CITY     CLEAR     54  47  77 N7        29.89R
SPENCER        PTCLDY    52  48  86 W9        29.87R
STORM LAKE     CLEAR     57  45  62 NW13      29.87S
$$

ABBREVIATIONS USED IN REMARKS
   TC - TEMPERATURE IN CELSIUS
  WCI - WIND CHILL INDEX
   HX - HEAT INDEX
  VSB - VISIBILITY





USA.gov is the U.S. government's official web portal to all federal, state and local government web resources and services.